Wind_Speed
16 16 16 16 17 16 16 16 15 14 14 13 13 13 14 15 15 16 16 15 15 14 14 13 13 13 13 13 13 13 13 13 13 13 12 12 12 12 12 12 11 12 12 12 13 13 13 13 13 13 13 13 13 13 13 14 15 16 16 16 15 14 13 13 12 10 10 10 12 13 14 15 14 13 12 13 14 14 14 14 14 14 14 14 14
17 17 16 17 18 17 17 18 18 18 17 16 15 15 15 15 16 17 17 16 16 16 15 15 15 14 14 13 14 14 14 14 14 13 12 12 13 13 12 12 12 12 13 13 13 14 14 14 13 13 13 13 14 14 14 14 15 16 16 15 15 14 13 13 13 12 10 11 13 14 15 15 15 14 14 14 14 15 16 17 16 16 16 16 16
18 18 18 18 18 18 18 18 18 19 19 18 16 15 15 15 15 16 16 16 16 16 16 16 16 17 16 15 15 14 14 14 14 14 13 12 12 13 13 13 12 12 13 13 13 14 14 14 13 13 14 13 13 14 14 14 15 15 15 15 15 15 15 14 14 13 12 12 13 14 15 15 15 15 15 15 15 16 17 18 18 18 17 17 16
19 19 19 19 20 19 18 18 18 18 18 17 17 17 17 16 16 16 16 16 16 16 15 15 16 16 16 16 16 15 15 14 14 14 13 13 13 14 14 13 13 13 13 14 15 15 15 14 14 14 14 14 14 14 14 15 15 15 16 16 16 16 16 15 14 14 14 13 13 14 15 15 16 16 17 16 16 17 18 18 18 18 18 18 17
19 20 21 20 20 19 18 19 18 17 17 17 17 18 18 18 18 17 17 17 17 16 16 16 16 16 16 16 16 16 16 16 16 16 15 15 15 16 16 15 15 15 15 15 16 16 15 13 13 15 15 15 15 15 15 15 15 15 15 16 16 16 16 15 15 15 15 14 14 14 14 15 16 17 17 17 17 18 18 18 18 19 19 19 19
20 21 22 21 20 20 19 19 18 18 18 18 18 19 19 19 19 18 18 18 17 17 17 18 17 17 17 17 17 17 17 18 18 18 18 18 18 18 18 17 17 17 17 17 16 15 14 14 14 16 17 17 16 16 16 16 15 15 16 16 16 16 16 16 17 17 16 15 15 14 15 16 16 16 17 17 17 18 18 18 18 19 19 19 19
20 23 23 21 20 19 19 18 19 19 19 19 19 20 19 19 19 19 19 19 19 18 18 19 19 18 18 19 19 18 18 18 19 20 20 20 19 18 18 18 18 18 18 17 17 15 16 16 16 16 17 17 17 17 18 17 15 16 16 16 17 17 17 17 18 17 17 16 16 16 16 16 16 16 17 18 18 19 19 19 19 19 19 19 20
21 24 26 24 22 20 19 19 20 20 19 20 20 20 20 19 20 20 20 20 19 19 19 20 20 19 18 19 19 19 19 20 20 21 22 23 22 20 18 17 17 17 17 17 17 16 17 17 17 17 18 18 19 19 19 16 15 15 16 17 17 17 18 18 18 18 18 17 17 17 18 17 17 18 18 19 19 19 20 20 19 19 20 20 21
22 24 26 24 21 20 21 21 21 21 21 21 21 21 20 19 19 19 19 19 19 19 20 21 21 20 19 18 19 19 20 21 20 20 21 23 25 25 21 17 18 19 18 18 17 16 17 18 19 20 20 18 18 19 18 16 15 16 16 17 17 17 18 18 18 18 18 18 18 18 19 18 17 18 19 20 20 20 20 21 20 21 21 21 21
23 25 25 24 20 18 19 19 21 22 22 22 22 21 20 18 17 17 17 17 18 19 20 21 21 21 21 20 20 20 20 20 20 19 20 22 25 24 21 18 19 20 20 19 18 18 18 19 20 21 20 18 17 18 17 17 17 18 18 18 18 18 19 19 19 19 19 19 19 19 19 18 17 19 20 21 22 22 22 22 22 22 22 22 21
24 25 25 25 23 20 20 22 23 23 23 23 23 21 20 18 18 18 19 19 19 19 20 20 20 21 22 22 21 21 21 21 21 20 21 22 22 23 23 21 19 20 20 20 20 20 20 20 21 22 21 18 18 19 19 18 18 19 19 18 18 19 20 20 20 20 21 21 20 21 20 19 18 19 21 22 23 23 23 23 23 23 23 23 22
23 24 24 25 24 22 24 26 26 25 25 25 25 23 21 20 20 21 21 20 20 20 20 21 21 21 22 22 23 23 23 22 22 22 22 22 22 24 25 22 20 20 21 21 22 22 22 23 23 23 22 21 20 20 19 19 19 19 19 19 19 19 20 21 21 21 22 22 21 21 21 21 20 21 22 24 24 23 23 23 23 23 23 23 22
19 21 22 25 26 25 26 27 27 28 29 29 28 27 24 23 23 23 23 22 21 21 22 22 23 23 22 23 25 26 25 24 24 24 25 25 26 27 26 23 23 23 24 24 24 24 24 25 25 24 23 22 21 21 21 20 20 20 20 20 20 21 22 22 22 22 23 23 22 21 21 22 23 22 23 25 25 23 23 22 22 23 23 22 22
13 16 18 22 25 26 27 27 28 31 32 32 32 30 27 25 25 24 24 23 23 23 24 25 25 25 25 26 28 28 27 27 26 27 27 28 30 30 29 27 26 27 27 27 27 27 26 26 26 25 24 23 22 22 22 21 20 20 21 21 21 22 23 23 24 25 25 25 24 23 22 24 24 23 24 25 25 24 23 22 22 22 23 23 22
6 9 13 15 18 22 25 27 29 32 33 34 33 32 29 27 26 26 25 24 24 25 26 28 28 28 29 30 30 30 30 30 29 29 30 30 31 32 32 31 30 30 30 30 30 29 29 29 29 28 25 24 24 24 23 22 22 22 22 22 23 23 24 24 25 27 27 27 27 25 24 24 25 25 24 25 25 25 24 23 22 22 23 24 24
2 4 8 10 11 14 18 24 29 31 31 32 32 32 31 28 26 24 24 24 25 25 27 29 29 30 31 31 31 32 33 33 32 32 32 32 32 32 33 33 33 33 33 33 33 32 30 30 31 30 28 26 26 26 26 25 25 25 25 25 25 25 25 26 27 28 29 29 29 28 27 26 26 26 26 25 26 27 27 26 23 23 24 25 25
3 4 5 6 7 7 9 14 20 24 26 27 29 29 28 26 23 21 21 21 22 22 24 26 27 29 30 31 32 34 35 35 34 33 33 33 33 33 34 34 35 36 36 36 34 32 32 32 32 31 30 29 28 29 29 29 28 28 28 27 27 26 26 27 27 28 29 30 31 30 29 28 28 27 27 26 27 28 29 28 26 26 27 28 28
6 5 4 3 4 4 2 3 7 11 14 17 18 18 18 17 15 14 14 15 15 16 18 19 20 22 24 27 30 32 33 34 35 35 35 34 34 34 34 35 36 37 38 37 35 33 34 33 32 32 31 30 31 32 32 32 30 30 30 29 28 28 27 27 27 27 28 29 30 30 30 30 30 29 29 28 28 29 30 30 29 30 30 31 32
10 7 3 3 4 4 4 4 5 8 9 9 10 9 9 9 8 9 11 13 14 14 15 15 16 16 17 19 21 23 24 26 28 31 33 33 34 35 36 37 37 37 37 37 36 36 38 35 33 33 32 31 32 33 32 32 32 32 31 31 29 29 28 27 27 27 28 28 29 29 30 30 30 31 31 31 31 32 33 32 32 32 33 33 34
12 11 8 7 6 6 6 6 6 7 8 8 9 7 5 6 7 9 12 13 14 14 14 14 14 14 15 16 18 18 18 17 18 20 23 25 27 28 28 31 34 34 35 37 36 35 36 35 34 33 32 31 32 33 33 32 32 33 33 32 31 30 29 28 27 27 27 27 27 28 28 28 29 30 31 32 33 34 36 35 35 35 35 34 34
11 13 13 12 11 10 9 9 10 10 10 10 11 10 8 8 7 8 9 10 10 9 9 9 10 11 11 12 13 14 15 15 14 13 13 14 16 16 17 19 22 23 27 35 37 34 31 30 30 29 29 29 31 31 31 31 32 34 34 34 32 31 30 29 29 28 27 27 27 28 28 29 29 30 31 32 33 35 36 36 36 36 36 35 34
9 10 13 15 16 16 15 14 14 15 14 13 13 12 12 11 10 9 9 8 9 9 9 9 9 8 7 6 6 7 8 10 11 10 11 12 13 13 13 12 15 17 19 21 22 21 21 24 25 25 25 27 27 26 25 26 28 31 32 32 31 30 30 30 31 31 31 31 31 31 31 31 32 33 34 34 35 35 36 36 36 36 36 35 34
10 9 11 14 16 16 16 13 12 13 13 13 12 12 11 10 10 9 9 10 10 11 12 12 12 10 8 6 5 4 4 5 5 6 8 10 10 10 11 11 12 15 17 14 10 10 14 19 21 22 22 23 24 23 22 22 23 25 26 28 29 30 31 32 33 34 35 36 37 37 37 37 37 36 36 36 35 35 36 36 35 36 36 35 34
10 10 11 12 13 14 13 12 10 10 10 10 10 10 10 10 10 11 12 12 13 14 14 13 13 13 12 10 9 8 7 6 6 5 5 6 6 6 8 10 10 11 12 12 10 10 12 15 17 20 22 23 23 24 24 23 23 23 23 24 26 27 28 28 28 29 30 32 34 35 36 36 36 35 34 34 34 33 34 34 34 35 35 35 34
9 9 9 10 11 11 11 11 10 9 9 9 10 10 11 12 13 13 14 14 13 13 12 12 12 12 12 12 11 11 10 9 8 8 7 7 7 6 6 7 7 7 6 6 7 8 9 10 12 14 16 16 16 17 19 21 22 22 21 21 21 21 21 21 21 22 23 24 25 26 28 28 29 29 29 30 30 30 30 31 31 31 31 31 31
8 8 8 9 9 9 9 9 9 9 9 9 10 10 11 11 11 11 10 10 9 9 8 8 8 8 9 9 9 8 8 7 7 7 8 8 8 8 8 8 7 7 7 7 8 8 8 9 9 10 10 10 9 10 12 14 15 16 17 17 18 18 19 19 20 20 21 22 22 22 22 22 22 22 22 22 23 23 24 24 24 24 24 25 26
6 7 7 8 8 8 7 7 7 7 7 8 8 8 8 8 8 7 7 6 6 6 6 5 6 6 6 6 7 6 6 6 6 6 6 7 7 7 8 8 9 9 10 10 11 11 11 12 12 12 12 11 11 12 13 14 14 15 16 18 18 20 21 21 22 22 23 23 22 21 19 19 19 18 18 19 19 19 19 20 21 21 22 23 24
5 6 7 7 7 7 6 6 6 6 6 7 7 7 7 7 6 6 6 5 5 5 5 5 5 5 6 6 6 6 6 6 6 6 6 7 7 7 7 8 8 9 10 10 11 11 12 13 14 14 14 14 14 15 16 17 17 18 19 20 21 22 22 23 23 23 23 23 23 22 21 21 20 19 18 17 18 18 19 20 21 22 23 24 24
6 6 6 7 7 7 7 6 6 6 6 6 6 6 6 6 6 6 6 6 6 6 6 6 6 6 6 6 6 6 7 7 7 7 7 7 7 8 8 8 8 9 9 10 10 11 11 12 12 13 13 13 14 15 16 17 18 19 20 20 21 22 22 23 23 22 22 22 21 22 22 21 20 19 18 17 17 17 18 19 20 21 21 21 21
8 7 7 7 7 7 7 7 7 7 7 7 7 7 7 7 7 7 7 7 7 6 6 6 6 6 6 6 6 6 7 7 7 7 8 8 8 9 9 9 10 10 10 10 11 11 12 12 12 12 13 12 13 13 14 15 16 17 18 18 19 20 20 20 21 20 20 20 19 19 19 18 18 19 19 18 18 17 17 18 18 19 19 19 19
9 9 9 8 8 8 8 8 7 7 7 7 8 8 8 8 8 8 8 7 7 6 6 6 6 6 6 7 7 7 7 7 7 7 7 8 8 9 10 10 11 11 12 12 12 13 13 13 13 14 14 14 14 14 15 15 14 16 17 17 17 18 18 18 18 18 18 18 17 16 16 15 16 16 16 15 15 15 16 16 16 17 17 17 17
9 9 9 9 10 10 9 9 9 8 8 8 8 8 8 7 7 7 7 7 6 7 7 7 7 7 7 8 8 8 8 8 8 8 8 8 9 9 10 11 11 12 13 13 13 14 14 14 15 15 15 15 15 15 16 16 15 16 17 17 17 18 18 18 18 18 17 16 15 14 14 14 15 14 14 14 13 13 13 13 13 14 14 14 14
10 10 10 10 10 10 10 10 9 9 8 8 8 8 8 8 7 7 7 7 7 8 8 8 8 8 9 9 9 10 10 11 11 11 11 11 11 11 11 11 12 12 13 14 14 14 15 15 16 16 16 16 16 16 16 16 16 16 17 17 18 18 18 18 18 17 16 15 13 11 11 12 13 13 12 12 12 12 12 12 13 14 14 15 15
10 9 9 9 10 10 9 9 9 8 8 8 8 8 8 8 8 8 8 8 9 9 9 9 9 10 11 11 11 13 14 14 14 15 15 15 14 13 13 12 13 13 14 15 15 15 15 15 16 16 17 17 17 17 17 17 16 16 16 17 17 16 16 16 17 17 17 16 13 11 11 12 13 13 12 12 14 15 16 18 18 18 18 18 18
9 8 7 8 9 9 8 8 8 8 8 9 9 9 9 10 10 10 10 10 11 11 10 9 10 11 12 13 13 14 16 16 16 17 17 17 16 15 15 15 15 15 16 16 16 16 16 15 15 16 16 17 17 17 17 17 17 17 16 16 17 16 15 15 15 16 16 16 13 12 13 14 14 14 15 16 17 18 19 21 22 21 20 20 21
8 7 6 7 8 8 9 9 9 9 9 10 10 10 11 12 12 12 12 12 12 12 12 11 11 12 13 14 14 15 16 16 16 17 17 17 17 17 17 17 17 17 17 17 17 17 17 16 16 16 16 16 17 17 17 17 17 17 16 17 17 17 16 16 16 16 16 15 14 15 16 18 18 19 20 21 20 20 20 22 23 24 24 24 25
8 8 7 7 8 9 10 10 10 10 11 12 12 12 13 13 14 14 13 13 13 13 13 12 12 12 13 15 15 16 16 16 16 17 17 18 18 18 18 17 17 17 17 17 17 17 17 17 17 17 17 17 17 18 18 18 17 17 18 18 18 18 18 17 17 16 16 16 16 17 18 20 22 23 24 24 23 23 23 23 24 25 25 25 24
9 9 8 7 8 10 10 10 11 12 13 13 13 14 14 14 15 15 15 15 14 14 14 13 13 13 14 15 17 17 17 17 17 18 18 18 18 18 16 15 15 16 16 16 16 16 16 15 15 15 15 16 17 17 18 18 19 19 19 20 20 21 21 20 20 20 20 20 20 20 20 21 22 23 24 25 25 25 25 25 25 25 25 24 23
10 10 9 9 10 11 12 11 11 12 13 13 13 14 14 15 15 15 16 16 16 15 15 15 14 14 15 16 17 19 20 20 19 19 19 19 19 18 16 15 15 15 15 15 15 16 15 14 14 14 15 16 17 17 18 18 19 20 20 21 22 23 24 24 24 24 24 24 24 24 24 24 24 24 25 25 26 26 26 26 25 25 24 24 23
10 10 10 10 11 12 13 13 13 14 14 14 14 14 14 15 15 15 16 17 17 17 18 17 17 17 16 16 17 18 20 21 22 22 21 20 20 18 17 17 16 16 15 16 16 16 15 15 15 16 17 17 17 17 18 18 19 20 21 22 23 24 25 26 27 28 28 28 28 28 28 27 27 27 27 27 28 28 27 27 27 26 25 25 24
10 11 11 11 12 13 13 14 14 15 15 15 15 15 16 16 16 16 17 17 18 18 19 19 19 18 18 17 17 18 19 20 22 23 22 22 21 19 17 16 16 16 16 16 17 16 15 14 15 16 18 19 20 20 20 20 21 22 23 24 24 25 26 26 27 28 29 30 31 31 31 31 31 31 31 31 30 30 30 29 29 28 27 27 26
11 12 12 12 13 13 14 14 15 15 16 16 16 16 16 16 16 16 17 17 18 18 19 20 20 19 18 18 18 18 19 20 21 22 23 23 23 22 20 17 16 16 16 16 16 16 15 15 17 19 21 22 23 23 24 24 24 25 26 26 27 27 28 28 28 28 29 29 30 31 32 33 33 34 34 34 33 33 32 32 31 31 30 29 28
12 13 13 14 14 14 14 15 15 15 16 16 16 16 16 16 16 16 17 17 18 18 19 20 20 19 18 18 18 18 19 20 21 23 24 24 24 23 22 21 19 18 16 15 16 17 18 20 22 24 24 25 25 25 25 26 26 27 28 29 29 29 29 29 30 29 29 29 30 30 31 32 33 33 34 34 33 33 33 33 32 32 31 30 29
13 13 14 14 15 15 15 15 16 16 17 17 16 16 16 16 16 16 17 17 18 19 19 20 19 19 18 17 18 18 19 20 22 23 24 24 24 24 24 23 22 20 19 19 19 20 21 22 24 25 25 25 25 25 26 27 28 29 29 29 29 30 30 30 30 30 30 30 30 30 31 32 32 33 33 33 32 32 32 32 32 32 31 30 29
13 14 15 15 16 16 16 16 16 17 17 16 16 16 15 15 16 16 17 17 17 18 18 18 18 18 18 17 17 18 19 20 22 23 23 24 24 25 25 25 24 23 23 23 24 24 24 24 24 25 25 26 26 27 28 29 30 30 30 30 30 30 30 29 29 29 29 29 29 29 30 31 32 33 33 33 33 33 32 32 32 32 31 31 30
14 15 16 16 17 17 17 17 17 17 16 16 16 16 16 16 17 18 18 18 17 16 16 16 17 18 17 16 16 17 19 20 21 23 23 24 25 25 25 26 26 25 25 26 26 27 27 27 27 27 27 28 28 29 29 30 30 30 30 30 30 30 30 30 29 29 29 28 28 28 28 29 30 31 31 31 32 32 32 32 32 31 31 30 29
16 16 17 17 17 17 17 17 17 16 16 16 17 17 17 17 17 18 19 18 16 15 14 15 16 17 17 17 17 18 19 21 21 22 23 24 25 26 26 27 27 26 26 26 27 28 29 29 29 29 29 30 30 30 31 31 31 31 30 30 30 31 31 30 29 29 28 28 28 28 28 28 29 29 29 28 28 29 29 29 29 29 28 28 27
16 16 16 16 16 17 17 17 17 17 17 17 17 17 17 17 18 18 18 16 15 14 14 15 16 17 18 18 18 19 20 21 22 22 23 24 25 26 26 27 27 27 27 28 28 29 30 30 30 30 31 31 31 31 32 32 32 32 31 31 31 31 31 30 30 29 29 29 29 28 28 29 28 27 26 26 25 25 26 26 26 26 26 27 27
16 16 16 16 16 17 17 17 18 18 17 17 17 17 17 17 18 18 17 16 15 15 16 16 17 17 18 19 19 19 20 21 22 23 24 25 26 26 26 26 27 27 28 29 29 30 30 31 31 32 32 32 31 31 31 32 32 33 33 32 31 31 30 30 30 29 29 30 29 29 28 27 25 24 23 24 24 24 24 25 25 24 25 26 27
17 17 16 16 16 17 17 17 18 18 18 18 17 16 16 16 17 17 16 16 17 17 17 17 17 18 19 20 20 21 21 22 23 24 25 26 26 27 27 27 27 28 29 29 30 30 31 31 31 32 32 31 31 31 31 31 31 32 32 31 30 30 30 29 29 27 27 28 27 27 26 24 22 21 21 22 23 24 24 24 24 22 22 23 24
17 17 17 16 16 17 17 17 17 18 18 18 17 17 16 16 16 16 16 16 17 18 19 19 18 18 18 19 20 21 21 22 23 24 25 25 26 26 27 27 27 28 28 29 29 29 30 30 30 30 30 30 29 30 29 29 29 29 30 30 29 28 28 28 26 25 24 24 24 24 23 22 21 20 20 21 22 23 23 23 22 21 20 20 20
Wind_Direction
218 219 220 218 212 207 204 203 207 212 214 213 210 210 211 212 213 213 214 216 216 218 220 221 223 222 219 218 221 227 232 235 238 239 240 241 244 247 248 249 250 250 251 251 251 254 255 256 257 259 262 264 267 269 272 275 278 281 285 290 294 295 295 296 297 296 297 298 297 296 298 299 299 297 295 296 296 295 294 295 297 298 297 297 300
217 216 215 215 213 210 208 204 204 208 213 215 213 212 213 212 213 216 217 218 218 219 219 219 221 225 228 226 223 222 224 229 234 238 241 243 245 247 247 247 249 250 252 253 254 255 256 256 257 259 262 265 267 270 272 275 278 281 284 287 289 289 291 292 293 292 289 287 287 288 291 295 298 299 299 299 298 296 296 298 299 299 298 298 300
211 214 214 210 207 209 212 211 208 209 212 215 217 218 219 220 218 219 221 224 225 224 222 219 218 221 227 231 233 231 228 228 230 233 236 241 247 251 251 249 249 249 250 253 255 256 256 255 255 257 260 262 264 267 270 273 276 279 282 283 284 285 287 288 290 291 289 286 287 288 291 296 299 300 301 302 301 299 299 299 299 298 298 298 300
213 210 211 211 208 207 211 215 214 215 215 216 218 219 221 224 226 225 225 226 229 230 230 229 227 224 223 224 229 235 237 236 236 237 238 241 245 248 251 253 253 251 249 249 250 252 254 256 257 260 262 262 263 266 269 273 275 277 278 279 282 284 286 288 289 290 290 290 290 292 296 299 299 299 300 302 303 302 301 300 299 297 297 298 299
227 213 206 208 212 211 209 213 216 217 218 218 220 221 221 224 228 231 232 232 232 232 234 236 238 238 236 232 230 232 235 238 240 240 240 239 241 244 247 250 252 254 252 249 248 251 256 262 267 270 272 270 268 267 267 269 270 271 274 277 279 282 284 286 286 286 288 288 288 291 295 297 297 296 297 299 300 300 300 299 298 297 298 299 300
240 229 213 204 208 214 212 211 214 217 219 221 223 226 227 228 229 232 237 241 240 238 239 240 241 243 245 246 245 242 240 243 245 245 241 236 234 238 243 246 247 250 254 255 254 254 256 259 261 264 267 266 266 266 263 262 264 266 269 272 274 277 279 281 282 283 285 287 288 291 293 293 294 294 294 296 297 296 297 298 298 298 298 298 300
242 239 230 213 206 213 216 213 214 216 219 222 226 230 233 233 233 234 238 242 243 242 244 246 248 248 247 248 250 251 251 254 255 254 252 246 239 234 238 245 250 252 257 262 263 262 261 261 260 261 263 261 260 260 256 254 258 263 267 270 273 276 278 279 280 283 285 287 289 290 291 293 294 293 293 294 295 294 294 295 297 297 296 296 298
244 240 237 226 210 209 216 216 216 218 220 222 227 232 235 234 235 236 238 240 243 245 245 247 250 252 251 249 252 256 258 259 260 260 260 260 255 246 238 240 249 254 257 261 263 264 264 266 267 266 264 261 261 263 262 258 258 264 268 272 273 274 276 279 281 282 284 286 287 288 288 290 290 290 290 290 290 290 290 292 293 292 292 292 293
244 239 241 237 221 213 217 219 218 220 223 225 228 232 235 235 233 233 235 238 240 243 245 247 249 251 251 250 252 256 257 257 258 259 259 260 260 256 248 244 248 254 256 257 257 257 258 263 266 264 265 268 273 278 281 278 270 267 268 271 273 275 277 279 280 281 282 283 286 286 286 287 287 288 288 288 286 285 286 287 288 288 288 288 288
239 236 243 248 239 229 229 227 224 224 226 229 233 236 238 238 235 235 238 241 241 240 241 245 246 246 247 248 249 252 254 255 253 251 251 253 256 256 253 248 248 253 257 257 256 255 256 258 258 258 262 269 272 276 281 279 274 272 273 275 278 280 280 280 279 279 279 280 281 282 282 283 284 286 287 287 285 282 281 282 283 284 285 285 286
242 239 241 244 243 241 238 234 231 232 234 234 236 238 239 239 239 240 242 245 246 246 247 248 246 243 242 244 247 250 252 253 250 245 246 250 254 258 258 254 250 253 256 255 254 253 254 254 255 258 260 262 264 268 273 272 269 270 273 276 279 281 281 281 279 279 280 280 281 280 279 277 277 281 284 284 282 281 280 281 282 283 284 284 285
245 245 245 244 245 245 244 241 240 242 243 241 239 237 237 239 240 242 243 244 247 250 252 253 252 249 246 245 248 251 252 253 253 251 250 250 252 258 262 262 262 261 260 259 256 253 253 254 256 258 259 258 261 265 268 268 268 270 272 273 272 273 275 277 277 279 280 281 282 282 280 278 277 280 283 283 282 281 280 280 281 281 282 283 286
242 245 247 248 247 245 242 241 243 246 248 247 243 239 238 240 242 243 245 245 247 250 253 254 255 255 254 253 253 254 255 257 258 257 255 253 254 256 258 260 262 264 264 262 260 257 257 257 257 257 258 258 260 261 263 266 269 271 273 273 272 271 271 273 274 276 277 278 280 281 279 279 280 282 283 283 282 281 280 279 280 280 280 281 283
236 242 247 251 251 248 244 241 242 246 249 250 247 241 237 238 241 244 245 247 250 253 254 255 256 256 257 257 255 254 255 256 256 256 256 255 255 256 258 258 258 259 261 263 263 261 259 259 259 258 257 259 261 261 262 263 263 265 268 270 271 271 271 272 273 274 275 276 278 280 280 280 281 282 282 281 279 278 277 276 276 278 279 279 281
222 232 240 246 251 251 246 241 239 240 243 247 247 243 238 235 237 241 244 247 251 255 257 257 257 257 257 257 256 254 252 251 252 254 255 255 255 256 259 259 258 258 260 261 261 260 258 258 259 258 256 258 261 262 262 260 260 263 265 266 268 269 270 271 272 273 274 275 276 278 279 280 282 283 281 278 274 272 272 272 272 275 277 279 281
222 234 240 244 251 254 249 241 235 233 234 237 240 241 239 235 233 237 242 248 251 252 254 256 256 257 256 255 256 255 252 251 252 253 255 257 257 257 259 259 259 259 259 258 257 257 257 257 259 260 260 260 261 261 261 261 263 265 266 267 268 268 269 270 271 271 273 273 274 275 276 277 280 281 280 277 272 269 269 270 272 275 277 280 283
282 296 279 253 251 262 259 244 236 233 231 231 234 237 237 234 232 235 240 247 251 253 255 257 258 259 258 257 257 257 256 255 253 253 253 255 257 257 259 260 260 259 258 258 258 258 258 258 259 261 263 263 264 264 264 265 266 267 268 268 268 267 267 268 268 270 271 271 272 272 273 276 277 277 277 275 272 271 270 271 273 276 279 283 286
269 291 300 266 247 248 231 206 211 213 214 218 223 226 227 230 235 240 243 248 254 257 261 262 263 263 263 262 261 261 260 258 256 254 254 254 256 257 258 259 260 261 261 263 263 262 262 262 262 262 263 262 263 266 267 268 268 269 269 268 268 268 268 269 270 271 272 272 271 271 271 273 274 274 274 273 272 272 272 272 274 276 280 285 288
250 245 230 208 215 213 191 168 159 161 171 186 195 201 213 224 232 240 246 251 256 261 266 269 270 270 270 269 268 267 267 266 264 261 260 259 260 262 262 262 262 263 265 265 263 260 260 261 263 264 263 262 263 265 268 269 269 269 269 268 268 269 270 271 271 270 271 271 271 271 271 272 273 273 274 273 273 273 273 274 276 278 281 286 289
238 226 208 195 203 208 203 200 191 177 172 177 179 183 211 239 244 248 253 256 258 263 268 273 275 276 275 274 273 273 275 277 276 273 270 267 265 269 274 271 265 265 270 271 267 263 260 260 261 262 261 262 264 265 267 268 267 267 267 268 269 270 270 270 270 269 269 269 269 270 272 273 274 274 274 274 274 274 275 276 277 279 281 284 287
227 221 217 218 226 231 233 234 228 214 199 191 190 194 211 229 240 252 259 260 259 261 268 276 284 289 286 281 279 277 275 274 276 279 281 277 274 283 293 283 268 269 278 273 262 255 256 259 260 260 260 263 267 268 268 268 269 269 270 269 268 268 268 267 266 266 266 265 265 267 269 271 274 275 276 275 274 273 274 275 276 278 279 281 283
217 218 221 227 233 240 247 247 237 226 219 216 216 218 218 219 222 227 233 238 243 252 264 274 284 292 293 286 286 289 284 277 272 268 267 270 276 287 298 289 271 273 284 279 259 251 260 267 265 265 266 267 268 268 267 267 269 270 270 268 267 267 267 266 266 266 265 265 265 266 268 271 274 277 280 279 276 273 273 274 275 277 277 278 279
209 206 208 219 229 235 239 235 223 216 217 217 218 217 215 216 221 226 233 240 247 256 264 269 272 275 275 274 282 297 304 299 288 272 262 262 267 273 278 279 271 270 281 295 295 280 277 272 265 263 265 265 264 263 263 263 264 266 268 269 271 273 273 272 272 272 271 270 270 270 272 273 275 278 280 281 278 274 273 273 274 275 275 275 276
214 210 204 207 216 220 221 218 212 210 213 214 218 222 225 231 239 248 256 262 265 267 269 270 269 269 269 272 276 281 287 293 293 289 281 276 274 268 265 269 274 276 280 286 284 274 270 269 265 264 266 269 270 270 269 269 269 272 276 280 282 282 281 280 280 278 277 275 274 273 273 273 274 275 276 277 277 276 274 274 273 273 273 273 273
215 221 217 212 212 214 215 218 220 225 231 236 240 245 249 253 257 262 266 269 271 273 273 273 272 272 272 274 277 278 279 280 279 277 280 284 287 288 285 281 284 289 290 285 281 279 279 278 277 276 275 278 279 276 272 270 271 275 280 282 283 283 282 282 282 284 284 283 281 279 277 275 274 274 274 276 276 276 274 274 273 273 272 273 273
198 207 215 218 217 215 216 219 225 232 239 243 247 250 253 256 259 261 264 267 270 274 278 280 280 280 279 280 284 286 287 286 284 281 283 287 287 287 287 289 290 290 290 289 290 291 290 287 286 286 287 288 288 283 277 273 273 276 278 278 279 282 284 285 287 289 291 290 288 286 284 281 280 280 281 281 280 278 276 275 275 275 275 275 276
186 188 198 209 216 218 218 218 220 224 227 231 236 240 244 247 250 254 257 262 267 274 280 283 286 289 290 291 295 300 303 306 307 307 306 305 305 302 296 291 290 290 289 288 287 286 286 285 285 285 285 286 285 285 285 285 284 284 283 282 283 285 287 288 289 290 292 293 292 291 289 287 287 286 287 288 286 283 279 277 278 277 276 275 276
192 189 189 193 201 210 215 218 219 221 223 225 228 230 234 239 244 250 256 263 270 276 281 284 287 290 294 297 300 304 311 315 318 322 323 319 317 316 314 310 306 303 301 299 296 292 289 286 286 287 288 290 290 290 290 290 289 288 286 285 284 285 285 287 288 290 291 292 293 292 290 291 291 291 289 287 286 284 281 280 280 280 278 278 278
207 205 202 199 199 203 209 215 219 222 227 232 236 239 243 247 251 257 261 265 268 273 278 283 287 289 292 298 303 308 313 317 318 319 321 323 324 321 318 316 314 311 309 307 305 304 302 300 298 298 297 297 296 294 292 292 291 291 290 289 288 288 288 288 290 291 291 290 289 289 289 289 289 288 286 283 282 280 278 279 281 283 285 286 286
219 220 219 219 217 217 220 226 231 234 237 242 247 250 253 255 256 258 260 262 263 266 271 276 283 291 296 300 306 309 310 312 316 317 317 317 319 318 317 315 312 310 308 307 306 306 306 305 306 306 305 304 302 299 296 295 294 292 291 292 293 293 292 292 292 292 291 290 289 287 286 285 283 282 280 279 278 279 280 284 289 292 295 297 297
231 233 234 233 232 233 233 235 241 246 250 252 252 252 253 255 257 258 260 263 265 269 273 278 282 288 293 296 300 303 306 308 311 314 317 317 314 312 310 309 308 308 307 307 307 308 307 306 306 306 305 305 305 303 301 300 300 297 295 295 295 294 294 295 295 295 294 294 294 294 293 290 288 288 289 289 290 290 291 293 295 296 296 297 296
240 241 243 243 244 243 241 240 240 243 249 254 256 257 256 256 260 263 266 270 274 275 278 283 287 290 294 297 298 300 304 309 312 315 317 317 315 314 312 311 310 309 308 307 306 305 305 305 304 304 304 304 305 305 303 304 305 303 301 300 298 297 297 299 300 300 300 302 304 304 302 303 305 306 304 301 296 292 290 290 292 293 293 293 293
244 243 242 243 244 243 243 242 239 237 239 243 250 257 261 263 265 266 269 274 279 281 284 290 296 299 301 303 306 307 308 311 314 317 318 318 316 317 319 320 319 316 314 313 310 307 306 305 303 303 303 303 303 304 304 305 306 306 305 304 303 304 305 306 306 305 307 311 313 310 305 305 307 306 304 300 296 294 297 300 302 303 303 301 301
242 239 237 238 238 235 237 239 238 238 237 235 240 249 256 261 264 266 269 273 276 280 289 297 302 304 305 307 309 310 311 312 314 315 316 316 317 318 320 321 321 320 318 317 316 313 311 308 305 304 303 303 303 303 303 304 305 307 308 308 309 311 312 312 310 308 309 311 313 308 298 292 289 288 291 295 297 300 303 306 307 309 309 307 306
240 235 234 239 239 236 234 236 237 240 243 244 246 250 254 258 262 265 269 274 278 282 289 296 300 300 300 301 303 303 304 306 308 309 309 309 309 310 312 315 317 319 320 320 319 317 316 315 313 311 308 306 305 304 303 303 304 306 308 309 309 310 310 309 307 306 306 308 305 294 285 282 282 283 285 289 292 296 300 303 305 306 309 310 310
244 238 238 244 248 248 247 248 248 250 253 257 260 263 265 268 270 272 276 280 282 284 287 290 291 291 291 293 294 294 296 299 300 301 301 302 303 304 307 310 314 315 316 316 315 315 316 317 317 316 314 312 309 306 304 304 303 304 304 303 304 305 305 304 304 303 304 305 300 287 277 276 278 281 282 285 289 291 293 295 296 298 301 303 305
259 252 246 247 251 253 254 256 257 258 260 264 268 271 275 278 280 281 283 283 284 285 286 287 286 285 286 288 289 289 291 293 294 294 295 295 296 298 301 307 310 311 311 312 313 314 316 318 319 319 317 315 313 310 308 305 303 302 301 300 301 302 301 301 301 300 298 296 292 286 279 274 274 277 281 285 289 291 290 290 290 292 294 295 296
273 273 271 268 266 262 259 258 259 261 264 268 271 273 276 278 281 282 283 281 280 281 282 283 285 285 287 289 290 291 291 290 289 290 291 292 293 295 300 306 307 307 308 309 310 313 317 320 321 319 318 317 317 316 313 310 307 303 300 298 296 295 294 294 294 293 291 290 289 288 286 284 283 283 285 287 288 289 289 288 288 288 289 290 290
275 280 282 282 280 277 275 274 272 272 271 271 271 272 273 275 277 279 280 281 282 283 283 285 287 288 289 291 294 296 297 296 295 295 295 295 297 302 308 312 312 311 312 310 310 312 315 315 313 312 313 315 315 314 313 312 310 307 303 299 296 294 293 292 292 291 290 290 290 289 289 288 288 288 288 288 288 288 289 289 289 288 289 289 288
278 280 281 280 277 277 279 279 277 276 275 274 273 273 273 273 274 275 277 280 282 285 287 288 288 288 289 291 292 294 294 294 294 294 294 296 298 302 307 310 311 313 314 313 311 311 310 309 310 312 313 314 313 312 311 310 309 307 305 302 300 297 295 293 292 291 290 289 289 289 288 288 288 288 288 289 289 290 290 291 290 290 290 290 289
282 280 279 276 272 272 274 275 275 276 276 276 275 274 273 273 273 273 275 278 280 283 286 287 287 289 291 292 292 291 290 290 291 293 295 298 301 304 307 307 306 307 309 310 312 312 311 311 312 314 314 313 311 310 309 308 306 305 304 302 301 300 298 296 294 292 290 289 288 288 288 288 288 288 288 288 289 289 290 290 290 290 289 289 288
280 279 277 273 270 271 272 273 274 275 274 274 274 273 273 274 274 276 278 281 284 287 289 290 290 292 294 295 294 293 292 292 293 295 298 301 305 309 312 312 309 309 309 310 311 311 312 312 311 311 311 310 308 307 306 306 305 304 303 303 302 301 300 299 297 294 292 290 288 286 285 285 284 284 284 285 286 286 287 287 287 287 286 285 284
273 272 272 271 271 270 270 270 271 270 269 269 268 269 271 273 274 276 279 283 286 288 288 289 290 293 295 296 295 293 291 290 291 293 297 301 305 308 310 311 312 314 315 313 310 308 307 308 308 309 310 310 309 308 307 306 306 306 305 304 304 302 301 299 298 297 295 293 291 289 287 286 285 284 283 284 284 285 286 286 285 285 284 284 283
269 269 269 270 270 269 269 269 268 267 267 268 269 271 274 276 279 281 283 286 287 287 287 287 289 291 293 294 294 291 288 288 288 291 296 301 304 305 306 307 309 312 313 312 309 307 307 307 308 309 309 310 309 309 308 308 309 309 309 307 305 303 301 300 299 298 297 296 294 292 290 288 287 286 285 285 286 286 286 286 286 285 284 283 282
272 272 271 270 269 269 269 269 269 270 271 273 275 275 276 277 279 280 281 282 282 284 286 289 289 290 291 291 290 287 286 286 288 292 295 298 299 300 302 304 307 308 308 308 308 309 310 311 311 311 311 310 308 308 308 308 309 309 309 308 306 304 303 302 302 301 300 298 297 296 294 291 289 288 286 286 285 285 285 285 284 284 284 283 282
275 274 272 272 272 274 274 274 274 274 275 275 275 276 277 280 281 281 281 281 280 280 282 284 284 285 287 288 287 285 284 286 289 292 294 295 296 297 298 300 301 302 303 304 305 307 309 310 310 311 311 311 310 310 309 308 307 307 306 305 304 303 303 303 303 303 303 302 302 301 300 298 295 292 289 286 285 284 284 283 283 283 283 283 283
274 273 273 273 274 275 275 275 273 273 273 273 275 278 281 283 283 281 281 283 283 281 279 277 277 279 281 283 285 285 286 287 290 291 292 293 293 294 296 297 298 298 300 301 302 304 306 307 308 308 309 309 310 309 308 307 306 306 305 303 302 302 301 302 303 303 302 302 301 301 302 302 301 297 293 290 287 285 284 283 283 283 283 284 283
272 271 271 273 273 271 270 270 270 271 271 273 275 279 281 281 279 279 280 281 280 278 276 275 275 278 281 283 285 286 287 288 289 290 290 290 291 291 292 293 294 295 296 298 300 302 303 304 305 306 306 307 307 307 306 305 305 304 303 302 300 299 298 298 299 299 299 298 298 297 299 301 301 296 293 291 289 286 285 285 285 285 286 286 284
272 271 270 270 268 267 266 267 268 269 269 271 273 275 276 276 275 275 274 273 272 272 272 273 274 276 278 279 280 280 281 282 283 284 284 285 285 286 288 289 291 293 295 297 299 300 301 302 304 305 305 306 305 304 303 303 302 302 301 300 299 297 296 296 296 296 296 297 296 296 297 299 298 293 290 291 291 291 290 289 288 288 288 287 286
274 273 272 270 268 267 266 266 267 268 269 270 272 273 272 270 269 269 269 269 271 272 274 276 276 277 277 277 277 276 275 275 276 278 280 283 285 287 290 292 295 296 297 298 299 300 301 303 304 304 304 305 304 304 303 302 301 300 299 298 298 298 298 298 297 296 296 296 296 295 296 298 295 290 289 291 293 293 292 292 291 290 287 285 286
275 275 274 273 271 269 268 268 269 271 273 274 275 275 273 270 267 266 268 271 273 276 279 281 280 278 277 276 276 276 277 277 278 280 283 286 288 291 293 295 297 297 298 298 299 301 302 303 303 304 304 305 305 304 302 301 300 299 299 299 299 300 300 300 298 297 296 296 294 293 295 296 294 290 288 288 289 290 290 291 291 290 286 284 285
Height
3191 3192 3194 3195 3196 3197 3198 3200 3201 3203 3204 3205 3206 3207 3208 3209 3210 3211 3212 3213 3213 3214 3215 3216 3217 3217 3218 3219 3220 3220 3221 3222 3222 3223 3223 3223 3224 3224 3224 3224 3224 3224 3224 3224 3224 3224 3224 3223 3223 3223 3222 3222 3222 3222 3222 3221 3221 3221 3220 3220 3220 3220 3219 3218 3218 3217 3217 3216 3215 3214 3214 3213 3212 3212 3211 3210 3208 3207 3206 3206 3205 3205 3204 3203 3202
3190 3191 3192 3193 3195 3196 3197 3198 3199 3200 3201 3203 3204 3206 3207 3208 3209 3210 3210 3211 3212 3213 3214 3215 3215 3216 3217 3217 3218 3219 3220 3220 3221 3221 3221 3222 3222 3222 3223 3223 3223 3223 3223 3223 3223 3222 3222 3222 3222 3221 3221 3221 3220 3220 3220 3220 3219 3219 3219 3219 3218 3218 3218 3217 3216 3216 3216 3215 3214 3213 3212 3212 3211 3210 3210 3209 3208 3207 3206 3205 3204 3204 3203 3202 3201
3189 3190 3190 3191 3192 3194 3195 3196 3197 3198 3199 3201 3203 3204 3206 3207 3207 3208 3209 3210 3211 3212 3212 3213 3214 3215 3215 3216 3216 3217 3218 3219 3219 3219 3220 3220 3220 3221 3221 3221 3221 3222 3222 3221 3221 3221 3220 3220 3220 3219 3219 3219 3219 3218 3218 3218 3218 3217 3217 3217 3217 3216 3216 3215 3215 3214 3214 3213 3213 3212 3211 3210 3210 3209 3208 3208 3207 3206 3205 3204 3204 3203 3202 3201 3199
3188 3188 3189 3190 3191 3191 3193 3195 3196 3197 3198 3200 3201 3203 3204 3205 3206 3207 3208 3209 3210 3211 3211 3212 3212 3213 3214 3214 3215 3215 3216 3217 3217 3218 3218 3218 3219 3219 3219 3219 3219 3220 3220 3220 3220 3219 3219 3219 3219 3218 3217 3217 3217 3216 3216 3216 3216 3215 3215 3215 3215 3215 3214 3214 3213 3212 3212 3211 3211 3210 3209 3209 3208 3207 3207 3206 3205 3204 3204 3203 3203 3201 3200 3199 3198
3188 3187 3186 3188 3189 3190 3191 3192 3194 3195 3197 3198 3199 3200 3202 3203 3204 3205 3206 3207 3208 3209 3209 3210 3210 3211 3212 3213 3213 3214 3214 3215 3215 3215 3216 3216 3217 3217 3217 3217 3217 3217 3218 3218 3217 3217 3218 3218 3218 3217 3216 3216 3215 3214 3214 3214 3213 3213 3213 3213 3212 3212 3212 3211 3211 3210 3210 3209 3209 3208 3208 3207 3207 3206 3205 3204 3203 3202 3202 3201 3200 3200 3199 3197 3196
3187 3187 3185 3183 3186 3189 3189 3190 3192 3193 3194 3196 3197 3198 3199 3201 3202 3203 3204 3205 3206 3207 3207 3208 3209 3209 3210 3211 3212 3212 3213 3213 3213 3214 3214 3213 3214 3214 3215 3215 3215 3215 3215 3215 3216 3216 3216 3216 3215 3214 3214 3214 3213 3212 3212 3211 3211 3211 3210 3210 3210 3210 3210 3209 3209 3208 3208 3207 3207 3206 3206 3205 3205 3204 3203 3202 3202 3201 3200 3199 3198 3197 3196 3196 3195
3184 3186 3185 3182 3182 3186 3188 3189 3190 3191 3192 3194 3195 3196 3197 3199 3200 3201 3201 3202 3203 3204 3205 3206 3207 3207 3208 3208 3209 3209 3210 3211 3212 3212 3212 3212 3211 3211 3211 3212 3213 3213 3213 3213 3213 3214 3214 3213 3213 3212 3212 3211 3210 3209 3208 3207 3208 3208 3208 3208 3208 3208 3207 3207 3207 3206 3206 3205 3205 3204 3204 3203 3203 3202 3201 3200 3200 3199 3198 3197 3196 3195 3195 3194 3193
3181 3183 3184 3182 3180 3182 3185 3186 3187 3189 3191 3192 3193 3194 3195 3196 3197 3198 3199 3200 3201 3202 3203 3203 3204 3205 3205 3206 3206 3207 3208 3208 3209 3209 3210 3211 3210 3209 3208 3208 3209 3210 3210 3210 3211 3211 3211 3210 3210 3210 3209 3208 3207 3207 3206 3206 3206 3206 3206 3206 3206 3206 3205 3205 3205 3204 3204 3203 3203 3202 3202 3202 3201 3200 3199 3198 3198 3197 3195 3194 3194 3193 3193 3192 3191
3177 3179 3180 3181 3179 3178 3180 3183 3185 3187 3189 3190 3191 3192 3193 3194 3195 3196 3197 3198 3199 3200 3200 3201 3201 3202 3203 3203 3204 3205 3205 3206 3206 3206 3207 3209 3209 3208 3207 3206 3205 3206 3206 3207 3207 3208 3208 3208 3207 3206 3206 3206 3206 3207 3206 3205 3204 3204 3204 3204 3204 3203 3203 3203 3202 3202 3202 3201 3201 3200 3199 3199 3199 3197 3197 3196 3195 3194 3193 3192 3192 3191 3191 3190 3189
3173 3175 3176 3177 3177 3178 3180 3182 3184 3185 3187 3188 3189 3189 3190 3191 3192 3193 3194 3195 3196 3197 3198 3198 3199 3199 3200 3200 3200 3201 3202 3203 3203 3203 3204 3205 3205 3206 3205 3203 3202 3202 3203 3203 3204 3204 3204 3204 3204 3204 3204 3205 3205 3204 3204 3203 3202 3202 3202 3202 3202 3201 3201 3201 3200 3200 3199 3199 3198 3197 3197 3196 3196 3194 3194 3193 3192 3191 3191 3190 3190 3189 3188 3187 3187
3168 3171 3172 3173 3174 3176 3179 3181 3182 3183 3184 3185 3186 3187 3188 3189 3190 3190 3191 3192 3193 3194 3195 3196 3196 3196 3196 3197 3197 3198 3199 3199 3200 3200 3200 3201 3202 3202 3202 3200 3199 3199 3199 3200 3201 3201 3200 3200 3200 3200 3201 3202 3201 3201 3201 3200 3200 3200 3200 3199 3199 3199 3199 3198 3198 3197 3196 3196 3195 3195 3194 3194 3193 3192 3190 3190 3188 3188 3187 3187 3187 3186 3185 3184 3184
3165 3167 3169 3169 3171 3173 3175 3177 3179 3181 3183 3184 3184 3185 3185 3186 3187 3188 3189 3189 3190 3190 3191 3192 3192 3192 3193 3194 3194 3194 3194 3195 3196 3196 3196 3197 3198 3198 3199 3198 3197 3197 3197 3197 3197 3197 3197 3197 3196 3197 3198 3199 3199 3198 3198 3197 3197 3197 3197 3196 3196 3196 3195 3195 3195 3194 3193 3193 3193 3192 3192 3191 3191 3190 3188 3186 3185 3185 3184 3184 3183 3183 3182 3181 3181
3165 3166 3167 3167 3169 3171 3173 3174 3176 3178 3179 3181 3182 3182 3183 3184 3185 3185 3186 3187 3188 3188 3188 3188 3189 3189 3190 3191 3190 3190 3190 3191 3192 3192 3193 3193 3193 3194 3194 3194 3194 3194 3195 3195 3195 3195 3194 3193 3193 3194 3194 3195 3196 3195 3195 3195 3194 3194 3193 3193 3192 3192 3192 3192 3191 3191 3191 3190 3190 3190 3189 3188 3187 3187 3185 3183 3182 3182 3181 3181 3180 3179 3179 3179 3178
3164 3165 3165 3165 3165 3166 3168 3170 3172 3174 3175 3177 3178 3179 3180 3181 3182 3183 3184 3185 3185 3185 3185 3185 3186 3187 3187 3186 3185 3186 3187 3188 3188 3188 3189 3189 3190 3190 3190 3190 3190 3191 3191 3191 3192 3192 3191 3190 3190 3191 3191 3191 3192 3192 3192 3192 3191 3190 3190 3189 3189 3189 3188 3188 3188 3188 3187 3187 3187 3187 3187 3185 3184 3184 3182 3181 3180 3179 3178 3177 3177 3176 3176 3175 3175
3163 3163 3164 3163 3163 3163 3164 3165 3166 3169 3171 3173 3175 3176 3177 3178 3179 3180 3181 3182 3182 3182 3182 3182 3182 3183 3182 3181 3181 3182 3183 3184 3184 3185 3185 3185 3186 3185 3186 3186 3186 3186 3187 3188 3188 3188 3188 3187 3186 3187 3187 3188 3188 3188 3188 3188 3187 3187 3186 3186 3185 3185 3184 3184 3183 3183 3183 3183 3183 3183 3183 3182 3181 3180 3179 3178 3177 3176 3175 3174 3174 3173 3173 3172 3172
3162 3162 3162 3162 3162 3161 3161 3161 3162 3164 3167 3170 3172 3173 3174 3175 3176 3177 3178 3179 3179 3179 3179 3179 3179 3179 3178 3177 3177 3178 3179 3179 3180 3180 3180 3180 3181 3181 3181 3181 3181 3182 3183 3182 3182 3183 3184 3184 3183 3183 3184 3184 3184 3184 3184 3184 3184 3184 3183 3183 3182 3181 3181 3180 3180 3179 3179 3179 3179 3179 3179 3178 3177 3176 3175 3174 3173 3172 3171 3171 3171 3170 3169 3168 3169
3160 3160 3160 3160 3160 3160 3159 3159 3159 3161 3163 3166 3167 3169 3171 3172 3173 3173 3175 3176 3176 3176 3176 3176 3175 3175 3175 3174 3174 3174 3174 3175 3176 3176 3176 3176 3176 3176 3176 3176 3177 3177 3177 3177 3179 3181 3181 3181 3181 3181 3180 3180 3181 3181 3180 3180 3180 3180 3180 3179 3179 3178 3178 3177 3176 3176 3175 3175 3175 3174 3174 3174 3173 3172 3172 3171 3170 3169 3168 3168 3168 3167 3165 3164 3165
3159 3159 3159 3158 3159 3159 3159 3159 3159 3160 3162 3163 3165 3167 3169 3170 3171 3171 3172 3173 3173 3173 3173 3173 3173 3172 3172 3171 3170 3170 3171 3171 3172 3172 3172 3172 3172 3172 3172 3172 3173 3173 3173 3175 3178 3179 3177 3177 3177 3177 3176 3177 3177 3177 3177 3176 3176 3176 3176 3176 3175 3175 3174 3174 3173 3173 3172 3171 3171 3170 3170 3170 3169 3168 3168 3167 3166 3165 3164 3164 3164 3163 3162 3161 3160
3158 3158 3158 3158 3158 3159 3159 3160 3161 3162 3162 3163 3164 3166 3167 3168 3169 3170 3171 3171 3171 3171 3170 3170 3170 3169 3169 3168 3167 3167 3167 3168 3168 3168 3168 3169 3169 3169 3169 3169 3169 3168 3168 3170 3173 3173 3171 3172 3173 3172 3172 3172 3172 3173 3173 3172 3172 3172 3172 3172 3172 3171 3171 3170 3170 3169 3168 3168 3167 3166 3166 3166 3165 3164 3164 3163 3163 3161 3160 3160 3160 3159 3158 3158 3157
3157 3158 3158 3158 3159 3159 3160 3161 3161 3162 3162 3163 3164 3165 3166 3167 3168 3169 3169 3169 3169 3169 3168 3168 3167 3167 3166 3166 3165 3165 3165 3165 3165 3165 3165 3165 3166 3166 3165 3165 3164 3164 3163 3162 3165 3166 3166 3166 3167 3168 3168 3168 3168 3168 3168 3168 3168 3168 3168 3168 3168 3167 3167 3167 3166 3165 3165 3164 3163 3163 3162 3162 3161 3160 3160 3159 3159 3157 3156 3156 3156 3155 3154 3153 3152
3155 3156 3157 3158 3159 3160 3160 3161 3162 3162 3162 3163 3163 3164 3165 3166 3167 3167 3167 3167 3167 3167 3166 3166 3165 3165 3164 3164 3163 3163 3162 3162 3162 3162 3162 3162 3163 3163 3162 3161 3161 3161 3159 3155 3154 3157 3160 3162 3163 3163 3163 3163 3163 3163 3164 3164 3164 3164 3163 3163 3163 3163 3163 3163 3162 3161 3160 3160 3159 3159 3158 3157 3157 3156 3155 3155 3154 3153 3152 3151 3151 3150 3150 3149 3148
3154 3155 3156 3157 3158 3159 3160 3161 3161 3162 3162 3162 3163 3163 3164 3165 3165 3166 3166 3165 3165 3165 3165 3165 3164 3164 3163 3162 3162 3161 3160 3160 3159 3159 3159 3160 3160 3160 3159 3158 3158 3159 3158 3154 3150 3152 3157 3159 3159 3159 3159 3159 3159 3159 3160 3160 3160 3159 3159 3159 3159 3159 3158 3158 3158 3157 3156 3155 3154 3154 3153 3152 3152 3151 3150 3150 3149 3148 3147 3147 3146 3145 3145 3144 3143
3154 3154 3155 3156 3157 3158 3159 3160 3160 3161 3161 3161 3162 3162 3163 3163 3164 3164 3164 3164 3164 3164 3163 3163 3163 3162 3162 3162 3161 3161 3160 3159 3158 3158 3157 3157 3157 3157 3156 3156 3156 3156 3156 3154 3152 3153 3155 3155 3155 3155 3156 3156 3156 3156 3156 3156 3156 3156 3155 3155 3155 3155 3154 3153 3153 3152 3151 3150 3149 3149 3148 3147 3146 3146 3145 3144 3144 3143 3143 3142 3141 3140 3139 3139 3138
3155 3155 3154 3155 3156 3157 3158 3159 3159 3160 3160 3160 3161 3161 3161 3162 3162 3163 3163 3162 3162 3162 3162 3162 3161 3161 3160 3160 3160 3160 3159 3159 3158 3158 3157 3156 3156 3156 3155 3155 3154 3154 3153 3152 3152 3152 3153 3153 3152 3152 3152 3153 3153 3153 3153 3152 3152 3152 3152 3151 3151 3150 3149 3148 3147 3146 3145 3144 3144 3143 3143 3142 3141 3141 3140 3140 3139 3138 3138 3137 3136 3135 3134 3134 3133
3156 3156 3155 3155 3155 3156 3157 3158 3158 3159 3159 3159 3159 3159 3159 3160 3160 3160 3161 3161 3160 3160 3160 3160 3160 3159 3159 3159 3159 3159 3158 3158 3158 3157 3157 3156 3155 3155 3154 3154 3153 3153 3152 3151 3151 3150 3150 3150 3150 3150 3150 3150 3149 3149 3149 3149 3149 3148 3148 3148 3147 3147 3146 3145 3144 3142 3141 3140 3139 3139 3138 3137 3137 3136 3136 3135 3134 3134 3133 3132 3131 3130 3130 3129 3129
3156 3156 3156 3156 3156 3156 3156 3157 3157 3158 3158 3158 3158 3158 3158 3158 3158 3159 3159 3159 3159 3158 3158 3158 3158 3158 3158 3157 3157 3157 3157 3156 3156 3156 3155 3155 3154 3154 3154 3153 3152 3152 3151 3150 3149 3149 3148 3148 3148 3148 3148 3148 3147 3147 3147 3146 3146 3145 3145 3145 3144 3144 3143 3142 3141 3140 3139 3137 3136 3136 3135 3134 3134 3133 3132 3131 3131 3130 3129 3127 3126 3126 3126 3126 3125
3156 3156 3156 3156 3156 3156 3156 3156 3157 3157 3157 3157 3157 3157 3157 3157 3157 3157 3157 3158 3158 3157 3157 3157 3157 3157 3156 3156 3156 3156 3155 3155 3155 3154 3154 3154 3153 3153 3152 3152 3151 3150 3150 3149 3148 3147 3147 3147 3146 3146 3146 3146 3146 3145 3145 3144 3143 3143 3143 3142 3142 3141 3140 3139 3138 3137 3136 3135 3134 3133 3132 3132 3131 3130 3129 3128 3127 3126 3126 3125 3124 3123 3123 3123 3122
3155 3155 3155 3155 3155 3155 3156 3156 3156 3156 3156 3156 3156 3156 3156 3156 3156 3156 3157 3157 3157 3157 3156 3156 3156 3155 3155 3155 3155 3154 3154 3154 3154 3153 3153 3152 3152 3151 3151 3150 3150 3149 3148 3147 3146 3146 3145 3145 3145 3145 3144 3144 3144 3143 3142 3141 3141 3140 3140 3139 3138 3138 3137 3136 3135 3134 3133 3133 3132 3131 3130 3129 3129 3128 3127 3125 3124 3123 3123 3122 3122 3121 3120 3119 3118
3154 3154 3154 3154 3154 3155 3155 3156 3156 3156 3156 3156 3156 3155 3155 3155 3155 3155 3156 3156 3156 3155 3155 3155 3155 3154 3154 3154 3154 3154 3153 3153 3153 3152 3152 3151 3151 3150 3149 3149 3148 3147 3146 3146 3145 3144 3144 3143 3143 3142 3142 3142 3141 3140 3140 3139 3138 3138 3137 3136 3135 3135 3134 3133 3132 3131 3130 3130 3129 3128 3128 3127 3126 3125 3124 3123 3122 3121 3120 3119 3119 3118 3117 3116 3115
3154 3154 3154 3154 3154 3154 3154 3155 3155 3155 3155 3155 3155 3155 3154 3154 3154 3154 3154 3154 3154 3154 3154 3154 3154 3153 3153 3153 3153 3152 3152 3152 3152 3151 3151 3150 3150 3149 3148 3147 3146 3146 3145 3144 3144 3143 3142 3142 3141 3140 3140 3140 3139 3138 3138 3137 3137 3136 3135 3134 3133 3132 3131 3130 3130 3129 3128 3127 3126 3126 3125 3124 3123 3122 3121 3120 3119 3119 3118 3117 3116 3116 3115 3114 3113
3153 3153 3153 3153 3153 3153 3153 3154 3154 3154 3154 3154 3154 3154 3153 3153 3153 3153 3153 3153 3153 3153 3153 3153 3152 3152 3152 3152 3152 3151 3151 3151 3151 3150 3150 3149 3149 3148 3147 3146 3145 3145 3144 3143 3143 3142 3141 3140 3139 3139 3138 3138 3137 3137 3136 3136 3135 3134 3133 3133 3131 3130 3129 3128 3127 3126 3126 3125 3124 3123 3122 3121 3121 3120 3119 3118 3118 3117 3116 3115 3114 3114 3113 3113 3112
3152 3152 3152 3152 3152 3152 3152 3153 3153 3153 3153 3153 3153 3152 3152 3152 3152 3152 3152 3152 3152 3152 3151 3151 3151 3151 3151 3150 3150 3150 3149 3149 3149 3149 3148 3148 3147 3146 3146 3145 3144 3143 3143 3142 3141 3141 3140 3139 3138 3137 3136 3136 3136 3135 3134 3134 3133 3132 3131 3130 3129 3128 3127 3126 3125 3124 3124 3123 3122 3121 3120 3120 3119 3118 3118 3117 3116 3115 3114 3113 3112 3112 3111 3111 3111
3151 3151 3152 3152 3152 3151 3151 3151 3152 3152 3152 3152 3151 3151 3151 3151 3151 3151 3151 3151 3151 3151 3150 3150 3150 3149 3149 3149 3148 3148 3147 3147 3147 3146 3146 3146 3145 3145 3144 3144 3143 3142 3141 3140 3140 3139 3138 3138 3137 3136 3135 3134 3134 3133 3132 3132 3131 3130 3129 3128 3127 3126 3125 3124 3123 3122 3122 3122 3121 3120 3119 3119 3118 3118 3117 3116 3115 3114 3113 3112 3111 3111 3110 3110 3109
3150 3150 3151 3150 3150 3150 3151 3151 3151 3151 3151 3151 3151 3150 3150 3150 3150 3150 3150 3150 3150 3150 3149 3149 3149 3148 3147 3147 3146 3146 3145 3145 3144 3144 3144 3143 3143 3143 3142 3142 3141 3140 3140 3139 3138 3137 3137 3136 3135 3134 3134 3133 3132 3132 3131 3130 3129 3128 3127 3126 3125 3124 3124 3123 3122 3121 3120 3120 3119 3119 3118 3118 3117 3117 3116 3114 3113 3112 3111 3110 3109 3109 3108 3107 3107
3149 3150 3150 3149 3149 3149 3150 3150 3150 3150 3150 3149 3149 3149 3149 3149 3149 3149 3149 3149 3148 3148 3148 3148 3147 3147 3146 3146 3145 3144 3143 3143 3143 3142 3142 3141 3141 3141 3141 3140 3140 3139 3138 3137 3136 3135 3135 3134 3133 3133 3132 3131 3130 3130 3129 3128 3127 3127 3126 3125 3124 3123 3122 3122 3121 3120 3119 3118 3118 3117 3117 3116 3116 3115 3114 3112 3111 3110 3109 3108 3107 3106 3106 3105 3104
3148 3149 3149 3149 3148 3148 3148 3148 3148 3148 3148 3148 3148 3148 3148 3147 3147 3147 3148 3147 3147 3147 3147 3147 3146 3145 3144 3144 3144 3143 3142 3142 3142 3141 3140 3140 3139 3139 3139 3138 3138 3137 3137 3136 3135 3133 3132 3132 3131 3130 3130 3129 3128 3127 3126 3126 3125 3124 3123 3123 3122 3121 3120 3120 3119 3118 3117 3116 3116 3115 3114 3113 3113 3112 3111 3109 3108 3107 3106 3106 3105 3104 3104 3103 3102
3146 3147 3147 3147 3147 3147 3147 3147 3147 3147 3146 3146 3146 3146 3146 3145 3145 3145 3145 3145 3145 3145 3145 3145 3145 3144 3143 3143 3142 3141 3141 3141 3140 3139 3139 3138 3138 3137 3137 3137 3136 3136 3135 3134 3133 3132 3131 3130 3129 3128 3127 3127 3126 3125 3124 3123 3123 3122 3121 3120 3119 3118 3118 3117 3116 3115 3114 3113 3112 3112 3111 3110 3109 3108 3107 3106 3105 3105 3104 3103 3103 3102 3101 3101 3100
3144 3145 3145 3145 3145 3145 3145 3145 3145 3145 3144 3144 3144 3144 3144 3143 3143 3143 3143 3143 3143 3143 3143 3143 3143 3142 3141 3141 3140 3139 3138 3138 3138 3137 3137 3136 3136 3136 3136 3136 3135 3134 3133 3132 3131 3130 3130 3129 3128 3127 3126 3125 3124 3123 3122 3121 3120 3120 3119 3118 3117 3116 3115 3114 3113 3112 3111 3110 3109 3109 3108 3107 3106 3105 3104 3103 3102 3101 3101 3100 3100 3099 3099 3098 3097
3142 3142 3143 3143 3142 3142 3142 3143 3143 3142 3142 3142 3142 3142 3142 3142 3141 3141 3141 3141 3141 3141 3140 3140 3140 3140 3140 3139 3138 3136 3135 3135 3134 3134 3134 3134 3133 3134 3134 3134 3133 3132 3131 3130 3129 3129 3128 3127 3126 3125 3124 3123 3122 3121 3120 3119 3118 3117 3116 3115 3114 3113 3112 3111 3110 3109 3109 3108 3107 3106 3105 3104 3103 3102 3101 3100 3099 3098 3098 3097 3096 3096 3095 3095 3094
3141 3141 3141 3141 3141 3140 3140 3140 3140 3140 3140 3140 3140 3140 3140 3140 3139 3139 3138 3138 3138 3138 3137 3137 3137 3138 3138 3137 3136 3135 3133 3132 3132 3132 3131 3131 3131 3132 3132 3131 3131 3130 3129 3128 3128 3127 3126 3125 3124 3123 3122 3121 3120 3119 3118 3117 3116 3115 3114 3112 3111 3110 3109 3108 3107 3106 3105 3104 3103 3102 3101 3101 3100 3099 3098 3097 3096 3095 3094 3093 3093 3092 3092 3091 3090
3140 3139 3139 3139 3139 3138 3138 3138 3138 3138 3138 3138 3138 3138 3138 3138 3137 3137 3137 3136 3136 3135 3135 3135 3135 3135 3135 3134 3134 3132 3131 3130 3129 3128 3128 3128 3128 3129 3129 3129 3128 3128 3127 3126 3125 3125 3124 3123 3122 3121 3120 3119 3118 3117 3116 3115 3113 3112 3111 3110 3108 3107 3106 3105 3104 3103 3102 3101 3099 3098 3097 3097 3096 3095 3094 3093 3092 3091 3090 3090 3089 3088 3088 3087 3087
3138 3138 3138 3137 3137 3137 3137 3137 3137 3137 3136 3136 3136 3136 3136 3136 3136 3135 3135 3134 3134 3133 3133 3132 3131 3132 3132 3131 3130 3129 3128 3127 3126 3125 3124 3124 3124 3124 3125 3125 3125 3124 3124 3123 3123 3122 3121 3121 3120 3119 3117 3116 3115 3114 3112 3111 3110 3109 3107 3106 3105 3104 3103 3101 3100 3099 3098 3097 3095 3094 3093 3092 3091 3090 3089 3088 3087 3087 3086 3085 3085 3084 3084 3083 3082
3136 3136 3136 3135 3135 3135 3135 3135 3135 3135 3134 3134 3134 3134 3133 3133 3133 3133 3132 3132 3131 3131 3130 3129 3129 3129 3129 3128 3127 3126 3125 3124 3123 3122 3121 3121 3120 3120 3120 3120 3121 3121 3121 3120 3120 3119 3118 3117 3117 3115 3115 3113 3112 3111 3109 3108 3106 3105 3103 3102 3101 3099 3098 3097 3096 3095 3093 3092 3091 3090 3089 3087 3086 3085 3084 3083 3083 3082 3081 3080 3080 3079 3078 3078 3077
3134 3134 3134 3133 3133 3133 3133 3133 3133 3132 3132 3132 3132 3132 3131 3131 3131 3131 3130 3130 3129 3129 3128 3127 3127 3126 3126 3126 3125 3123 3122 3121 3120 3120 3119 3118 3118 3117 3117 3117 3117 3117 3117 3117 3116 3115 3115 3114 3113 3112 3111 3110 3109 3107 3106 3104 3103 3101 3099 3098 3096 3095 3094 3093 3091 3090 3089 3088 3086 3085 3084 3082 3081 3080 3079 3078 3078 3077 3076 3075 3075 3074 3073 3073 3072
3132 3132 3131 3131 3131 3130 3130 3130 3130 3130 3130 3130 3130 3129 3129 3129 3129 3128 3128 3127 3127 3126 3125 3124 3124 3123 3123 3123 3122 3121 3120 3119 3118 3117 3117 3116 3116 3115 3115 3114 3114 3114 3114 3113 3112 3111 3111 3110 3109 3108 3107 3106 3105 3104 3102 3101 3099 3097 3095 3094 3092 3090 3089 3088 3087 3086 3084 3083 3082 3080 3079 3077 3076 3075 3074 3073 3072 3072 3071 3070 3069 3069 3068 3067 3067
3130 3129 3129 3129 3128 3128 3128 3128 3128 3128 3128 3127 3127 3127 3127 3127 3126 3125 3125 3124 3124 3123 3123 3122 3121 3120 3120 3120 3120 3119 3118 3117 3116 3115 3115 3114 3114 3113 3113 3112 3111 3111 3110 3109 3108 3108 3107 3106 3106 3104 3103 3102 3101 3100 3098 3097 3095 3093 3092 3090 3088 3086 3085 3084 3083 3081 3080 3078 3077 3076 3074 3073 3071 3070 3069 3068 3067 3066 3066 3065 3064 3063 3063 3062 3062
3128 3127 3127 3126 3126 3126 3126 3125 3125 3125 3125 3125 3124 3124 3124 3124 3123 3122 3122 3122 3122 3121 3121 3120 3119 3118 3118 3118 3117 3116 3115 3114 3114 3113 3113 3112 3111 3110 3110 3109 3108 3108 3107 3106 3105 3104 3104 3103 3102 3101 3099 3098 3097 3095 3094 3092 3090 3089 3087 3086 3084 3082 3081 3080 3078 3077 3075 3074 3073 3072 3070 3069 3067 3066 3065 3064 3063 3062 3061 3060 3059 3058 3058 3057 3057
3125 3125 3125 3124 3124 3124 3123 3123 3123 3123 3123 3122 3122 3122 3122 3121 3120 3120 3119 3119 3119 3119 3118 3118 3117 3116 3115 3115 3114 3113 3112 3111 3111 3111 3110 3109 3108 3108 3107 3106 3105 3105 3104 3103 3102 3102 3101 3100 3098 3097 3096 3094 3093 3091 3089 3087 3086 3084 3082 3081 3079 3078 3077 3075 3074 3073 3071 3070 3069 3068 3066 3065 3063 3062 3060 3059 3058 3057 3057 3056 3055 3054 3054 3053 3052
3123 3122 3122 3122 3122 3121 3121 3121 3121 3120 3120 3120 3120 3120 3120 3119 3118 3117 3117 3117 3117 3116 3116 3115 3115 3114 3113 3112 3111 3111 3110 3109 3108 3108 3107 3106 3105 3105 3104 3103 3103 3102 3101 3100 3099 3098 3097 3096 3094 3093 3092 3090 3088 3087 3085 3083 3081 3079 3077 3076 3075 3073 3072 3071 3070 3069 3067 3066 3065 3063 3062 3061 3060 3058 3057 3056 3054 3054 3053 3052 3052 3051 3050 3049 3047
3120 3119 3120 3120 3119 3119 3119 3119 3118 3118 3118 3118 3118 3118 3117 3117 3116 3115 3115 3114 3114 3113 3113 3112 3112 3111 3110 3109 3108 3108 3107 3106 3105 3105 3104 3103 3102 3101 3100 3100 3099 3098 3097 3096 3095 3094 3092 3091 3090 3088 3087 3085 3084 3082 3080 3079 3077 3075 3073 3072 3070 3069 3068 3067 3065 3064 3063 3062 3060 3059 3058 3057 3056 3055 3054 3053 3051 3050 3050 3049 3048 3048 3047 3045 3044
3117 3117 3117 3117 3117 3116 3116 3116 3116 3115 3115 3114 3114 3114 3114 3114 3113 3112 3112 3111 3111 3110 3109 3109 3108 3108 3107 3106 3105 3104 3104 3103 3102 3101 3100 3099 3098 3098 3097 3096 3096 3095 3093 3092 3091 3090 3088 3087 3085 3084 3082 3081 3079 3078 3076 3075 3073 3071 3069 3068 3066 3065 3064 3062 3061 3060 3059 3058 3057 3056 3055 3054 3053 3052 3051 3050 3049 3047 3046 3045 3045 3044 3043 3042 3041